RJA122 OJAQ-HECA

Flight info

Callsign RJA122
Flight time 0h 41m
Altitude 26000
Route DCT SISIK N697 MENLI DCT CVO DCT
Aircraft A320/M-SDE2E3FGHIJ1RWXY/LB1

Departure

Time 2026-05-09 19:02
Airport King Hussein International Airport (OJAQ)

Arrival

Time 2026-05-09 19:43
Airport Cairo International Airport (HECA)
Time Latitude Longitude Altitude Speed Heading
2026-05-09 18:38 29.60182 35.01743 176 ft 0 kts 30°
2026-05-09 18:43 29.60178 35.01741 176 ft 2 kts 22°
2026-05-09 18:43 29.60162 35.01738 176 ft 2 kts 344°
2026-05-09 18:44 29.60147 35.01748 176 ft 3 kts 306°
2026-05-09 18:44 29.60144 35.01754 176 ft 0 kts 290°
2026-05-09 18:56 29.60147 35.01744 176 ft 2 kts 289°
2026-05-09 18:57 29.60153 35.01718 176 ft 4 kts 277°
2026-05-09 18:57 29.60154 35.01680 177 ft 5 kts 260°
2026-05-09 18:57 29.60133 35.01647 177 ft 5 kts 219°
2026-05-09 18:57 29.60102 35.01629 178 ft 5 kts 207°
2026-05-09 18:58 29.60068 35.01609 179 ft 6 kts 206°
2026-05-09 18:58 29.60031 35.01592 180 ft 6 kts 201°
2026-05-09 18:58 29.59985 35.01571 181 ft 11 kts 201°
2026-05-09 18:58 29.59969 35.01501 182 ft 10 kts 318°
2026-05-09 18:59 29.60045 35.01450 180 ft 6 kts 335°
2026-05-09 18:59 29.60059 35.01443 179 ft 5 kts 336°
2026-05-09 18:59 29.60115 35.01441 178 ft 12 kts 12°
2026-05-09 18:59 29.60158 35.01458 177 ft 2 kts 17°
2026-05-09 19:00 29.60179 35.01465 176 ft 0 kts 17°
2026-05-09 19:01 29.60188 35.01468 176 ft 9 kts 17°
2026-05-09 19:02 29.60494 35.01575 170 ft 89 kts 17°
2026-05-09 19:02 29.61344 35.01868 199 ft 157 kts 16°
2026-05-09 19:02 29.62435 35.02247 818 ft 169 kts 13°
2026-05-09 19:02 29.63615 35.02660 1515 ft 187 kts 14°
2026-05-09 19:03 29.64902 35.03129 2245 ft 196 kts 15°
2026-05-09 19:03 29.66276 35.03451 3120 ft 212 kts
2026-05-09 19:03 29.67792 35.03074 3692 ft 240 kts 336°
2026-05-09 19:03 29.69251 35.02047 4626 ft 253 kts 321°
2026-05-09 19:04 29.70363 35.00433 5582 ft 265 kts 295°
2026-05-09 19:04 29.70849 34.98373 6589 ft 271 kts 273°
2026-05-09 19:04 29.70534 34.96244 7618 ft 273 kts 248°
2026-05-09 19:04 29.69813 34.94213 8688 ft 276 kts 245°
2026-05-09 19:05 29.68981 34.92209 9791 ft 279 kts 242°
2026-05-09 19:05 29.68129 34.90154 10640 ft 293 kts 244°
2026-05-09 19:05 29.67326 34.87890 11120 ft 317 kts 249°
2026-05-09 19:05 29.66752 34.85378 11814 ft 331 kts 257°
2026-05-09 19:06 29.66355 34.82743 12683 ft 338 kts 257°
2026-05-09 19:06 29.65835 34.80116 13592 ft 344 kts 255°
2026-05-09 19:06 29.65237 34.77426 14485 ft 350 kts 256°
2026-05-09 19:06 29.64779 34.74681 15470 ft 352 kts 261°
2026-05-09 19:07 29.64558 34.71873 16500 ft 353 kts 267°
2026-05-09 19:07 29.64534 34.69039 17480 ft 356 kts 270°
2026-05-09 19:07 29.64577 34.66178 18368 ft 361 kts 271°
2026-05-09 19:07 29.64630 34.63276 19117 ft 365 kts 271°
2026-05-09 19:08 29.64665 34.60339 19892 ft 370 kts 270°
2026-05-09 19:08 29.64675 34.57370 20695 ft 373 kts 270°
2026-05-09 19:08 29.64661 34.54414 21496 ft 376 kts 269°
2026-05-09 19:08 29.64629 34.51393 22292 ft 380 kts 269°
2026-05-09 19:09 29.64584 34.48345 23082 ft 383 kts 269°
2026-05-09 19:09 29.64529 34.45274 23806 ft 386 kts 268°
2026-05-09 19:09 29.64470 34.42169 24417 ft 389 kts 268°
2026-05-09 19:09 29.64408 34.39080 24844 ft 385 kts 268°
2026-05-09 19:10 29.64346 34.36013 25024 ft 383 kts 268°
2026-05-09 19:10 29.64284 34.32950 25048 ft 384 kts 268°
2026-05-09 19:10 29.64221 34.29877 25047 ft 385 kts 268°
2026-05-09 19:10 29.64158 34.26805 25049 ft 385 kts 268°
2026-05-09 19:11 29.64094 34.23727 25051 ft 385 kts 268°
2026-05-09 19:11 29.64030 34.20691 25055 ft 385 kts 268°
2026-05-09 19:11 29.63965 34.17614 25053 ft 385 kts 268°
2026-05-09 19:11 29.63899 34.14535 25054 ft 385 kts 268°
2026-05-09 19:12 29.63833 34.11456 25057 ft 386 kts 268°
2026-05-09 19:12 29.63766 34.08374 25057 ft 386 kts 268°
2026-05-09 19:12 29.63698 34.05292 25056 ft 386 kts 268°
2026-05-09 19:12 29.63630 34.02212 25056 ft 386 kts 268°
2026-05-09 19:13 29.63561 33.99129 25059 ft 386 kts 268°
2026-05-09 19:13 29.63491 33.96048 25057 ft 386 kts 268°
2026-05-09 19:13 29.63422 33.93008 25062 ft 386 kts 268°
2026-05-09 19:13 29.63351 33.89922 25061 ft 386 kts 268°
2026-05-09 19:14 29.63280 33.86841 25062 ft 386 kts 268°
2026-05-09 19:14 29.63207 33.83756 25061 ft 386 kts 268°
2026-05-09 19:14 29.63134 33.80671 25063 ft 386 kts 268°
2026-05-09 19:14 29.63060 33.77588 25060 ft 386 kts 268°
2026-05-09 19:15 29.62985 33.74505 25061 ft 386 kts 268°
2026-05-09 19:15 29.62910 33.71419 25065 ft 386 kts 268°
2026-05-09 19:15 29.62834 33.68335 25066 ft 386 kts 268°
2026-05-09 19:15 29.62759 33.65295 25063 ft 378 kts 268°
2026-05-09 19:16 29.62684 33.62294 25069 ft 383 kts 268°
2026-05-09 19:16 29.62606 33.59224 25064 ft 385 kts 268°
2026-05-09 19:16 29.62527 33.56140 25063 ft 386 kts 268°
2026-05-09 19:16 29.62448 33.53054 25065 ft 386 kts 268°
2026-05-09 19:17 29.62367 33.49970 25063 ft 387 kts 268°
2026-05-09 19:17 29.62288 33.46923 25060 ft 375 kts 268°
2026-05-09 19:17 29.62208 33.43899 25068 ft 382 kts 268°
2026-05-09 19:17 29.62126 33.40834 25061 ft 385 kts 268°
2026-05-09 19:18 29.62043 33.37752 25061 ft 387 kts 268°
2026-05-09 19:18 29.61959 33.34659 25059 ft 387 kts 268°
2026-05-09 19:18 29.61875 33.31605 25062 ft 388 kts 268°
2026-05-09 19:18 29.61790 33.28514 25056 ft 388 kts 268°
2026-05-09 19:19 29.61703 33.25417 25053 ft 388 kts 268°
2026-05-09 19:19 29.61616 33.22318 25055 ft 388 kts 268°
2026-05-09 19:19 29.61528 33.19226 25050 ft 388 kts 268°
2026-05-09 19:19 29.61438 33.16125 25051 ft 388 kts 268°
2026-05-09 19:20 29.61349 33.13028 25050 ft 388 kts 268°
2026-05-09 19:20 29.61259 33.09927 25048 ft 388 kts 268°
2026-05-09 19:20 29.61168 33.06828 25049 ft 388 kts 268°
2026-05-09 19:20 29.61078 33.03770 25045 ft 388 kts 268°
2026-05-09 19:21 29.61009 33.00673 25045 ft 388 kts 270°
2026-05-09 19:21 29.61186 32.97572 25045 ft 389 kts 275°
2026-05-09 19:21 29.61520 32.94492 25040 ft 389 kts 277°
2026-05-09 19:21 29.61936 32.91417 25039 ft 389 kts 278°
2026-05-09 19:22 29.62401 32.88352 25039 ft 390 kts 279°
2026-05-09 19:22 29.62891 32.85291 25043 ft 390 kts 279°
2026-05-09 19:22 29.63390 32.82232 25042 ft 390 kts 279°
2026-05-09 19:22 29.63890 32.79166 25043 ft 390 kts 279°
2026-05-09 19:23 29.64381 32.76145 25044 ft 390 kts 279°
2026-05-09 19:23 29.64873 32.73085 25045 ft 390 kts 279°
2026-05-09 19:23 29.65363 32.70019 25047 ft 390 kts 279°
2026-05-09 19:23 29.65849 32.66952 25046 ft 390 kts 279°
2026-05-09 19:24 29.66332 32.63882 25045 ft 391 kts 279°
2026-05-09 19:24 29.66813 32.60823 24740 ft 386 kts 279°
2026-05-09 19:24 29.67290 32.57779 23875 ft 390 kts 279°
2026-05-09 19:24 29.67772 32.54687 22897 ft 394 kts 279°
2026-05-09 19:25 29.68251 32.51591 22024 ft 393 kts 279°
2026-05-09 19:25 29.68727 32.48511 21240 ft 390 kts 279°
2026-05-09 19:25 29.69192 32.45495 20493 ft 387 kts 279°
2026-05-09 19:25 29.69659 32.42461 19748 ft 383 kts 279°
2026-05-09 19:26 29.70120 32.39458 19031 ft 380 kts 279°
2026-05-09 19:26 29.70578 32.36480 18318 ft 377 kts 279°
2026-05-09 19:26 29.71033 32.33524 17511 ft 374 kts 279°
2026-05-09 19:26 29.71485 32.30594 16721 ft 370 kts 279°
2026-05-09 19:27 29.71932 32.27696 15974 ft 367 kts 279°
2026-05-09 19:27 29.72376 32.24820 15230 ft 364 kts 279°
2026-05-09 19:27 29.72818 32.21967 14506 ft 361 kts 279°
2026-05-09 19:27 29.73250 32.19137 13784 ft 357 kts 279°
2026-05-09 19:28 29.73706 32.16376 13008 ft 355 kts 281°
2026-05-09 19:28 29.74235 32.13624 12292 ft 350 kts 283°
2026-05-09 19:28 29.74795 32.10921 11585 ft 345 kts 284°
2026-05-09 19:28 29.75340 32.08244 10855 ft 342 kts 284°
2026-05-09 19:29 29.75859 32.05604 10430 ft 331 kts 284°
2026-05-09 19:29 29.76343 32.03079 10190 ft 315 kts 284°
2026-05-09 19:29 29.76797 32.00671 9954 ft 301 kts 284°
2026-05-09 19:29 29.77228 31.98350 9549 ft 293 kts 284°
2026-05-09 19:30 29.77642 31.96072 9030 ft 290 kts 284°
2026-05-09 19:30 29.78043 31.93808 8511 ft 287 kts 284°
2026-05-09 19:30 29.78429 31.91559 8005 ft 285 kts 284°
2026-05-09 19:30 29.78795 31.89353 7504 ft 283 kts 284°
2026-05-09 19:31 29.79149 31.87131 7002 ft 282 kts 284°
2026-05-09 19:31 29.79490 31.84915 6500 ft 280 kts 284°
2026-05-09 19:31 29.79817 31.82717 5981 ft 278 kts 283°
2026-05-09 19:31 29.80141 31.80525 5400 ft 278 kts 283°
2026-05-09 19:32 29.80464 31.78328 4857 ft 278 kts 284°
2026-05-09 19:32 29.80769 31.76141 4568 ft 276 kts 284°
2026-05-09 19:32 29.81072 31.73951 4511 ft 277 kts 283°
2026-05-09 19:32 29.81377 31.71796 4518 ft 276 kts 283°
2026-05-09 19:33 29.81693 31.69616 4502 ft 276 kts 284°
2026-05-09 19:33 29.82004 31.67436 4502 ft 276 kts 284°
2026-05-09 19:33 29.82308 31.65257 4503 ft 276 kts 283°
2026-05-09 19:33 29.82611 31.63080 4512 ft 275 kts 283°
2026-05-09 19:34 29.82918 31.60908 4501 ft 275 kts 284°
2026-05-09 19:34 29.83222 31.58726 4500 ft 277 kts 283°
2026-05-09 19:34 29.83524 31.56536 4505 ft 276 kts 283°
2026-05-09 19:34 29.83822 31.54358 4496 ft 275 kts 283°
2026-05-09 19:35 29.84124 31.52189 4497 ft 272 kts 283°
2026-05-09 19:35 29.84416 31.50092 4487 ft 267 kts 284°
2026-05-09 19:35 29.84695 31.47991 4499 ft 265 kts 283°
2026-05-09 19:35 29.84971 31.45890 4491 ft 265 kts 283°
2026-05-09 19:36 29.85325 31.43817 4498 ft 261 kts 293°
2026-05-09 19:36 29.86074 31.41939 4481 ft 257 kts 303°
2026-05-09 19:36 29.86956 31.40155 4496 ft 256 kts 305°
2026-05-09 19:36 29.87859 31.38387 4493 ft 256 kts 305°
2026-05-09 19:37 29.88768 31.36620 4457 ft 255 kts 306°
2026-05-09 19:37 29.89667 31.34860 3981 ft 256 kts 305°
2026-05-09 19:37 29.90270 31.33685 3691 ft 256 kts 305°
2026-05-09 19:37 29.91442 31.31383 3285 ft 247 kts 305°
2026-05-09 19:38 29.92301 31.29682 2902 ft 244 kts 305°
2026-05-09 19:38 29.93155 31.28013 2590 ft 240 kts 305°
2026-05-09 19:38 29.94020 31.26378 2498 ft 238 kts 309°
2026-05-09 19:38 29.95249 31.25185 2487 ft 229 kts 340°
2026-05-09 19:39 29.96785 31.24927 2497 ft 224 kts
2026-05-09 19:39 29.97803 31.25119 2492 ft 224 kts 14°
2026-05-09 19:39 29.99206 31.25864 2492 ft 223 kts 32°
2026-05-09 19:39 30.00764 31.27438 2491 ft 224 kts 47°
2026-05-09 19:40 30.01767 31.28793 2497 ft 227 kts 48°
2026-05-09 19:40 30.02775 31.30148 2484 ft 214 kts 48°
2026-05-09 19:40 30.03707 31.31417 2350 ft 203 kts 49°
2026-05-09 19:40 30.04314 31.32248 2192 ft 197 kts 49°
2026-05-09 19:41 30.05469 31.33791 1832 ft 186 kts 48°
2026-05-09 19:41 30.06297 31.34894 1565 ft 176 kts 49°
2026-05-09 19:41 30.06564 31.35251 1485 ft 170 kts 48°
2026-05-09 19:41 30.07450 31.36440 1233 ft 150 kts 47°
2026-05-09 19:42 30.07889 31.37026 1092 ft 142 kts 49°
2026-05-09 19:42 30.08499 31.37843 930 ft 125 kts 48°
2026-05-09 19:42 30.09217 31.38789 727 ft 125 kts 47°
2026-05-09 19:42 30.09628 31.39319 660 ft 131 kts 49°
2026-05-09 19:43 30.10193 31.40104 423 ft 121 kts 50°
2026-05-09 19:43 30.10697 31.40792 388 ft 102 kts 49°
2026-05-09 19:43 30.11012 31.41208 390 ft 48 kts 50°
2026-05-09 19:43 30.11294 31.41543 387 ft 41 kts 31°
2026-05-09 19:44 30.11447 31.41619 382 ft 35 kts 16°
2026-05-09 19:44 30.11537 31.41622 376 ft 2 kts 351°
2026-05-09 19:44 30.11549 31.41620 375 ft 3 kts 352°
2026-05-09 19:44 30.11594 31.41613 373 ft 10 kts 352°
2026-05-09 19:45 30.11665 31.41580 367 ft 13 kts 330°
2026-05-09 19:45 30.11690 31.41508 364 ft 11 kts 259°
2026-05-09 19:45 30.11676 31.41452 364 ft 1 kts 252°
2026-05-09 19:45 30.11654 31.41419 366 ft 9 kts 215°
2026-05-09 19:46 30.11598 31.41437 366 ft 8 kts 122°
2026-05-09 19:46 30.11541 31.41452 372 ft 13 kts 178°
2026-05-09 19:46 30.11462 31.41417 372 ft 12 kts 228°
2026-05-09 19:46 30.11412 31.41352 373 ft 10 kts 229°
2026-05-09 19:47 30.11325 31.41233 373 ft 30 kts 230°
2026-05-09 19:47 30.11150 31.41007 374 ft 35 kts 229°
2026-05-09 19:47 30.11030 31.40845 373 ft 17 kts 232°
2026-05-09 19:47 30.10931 31.40711 374 ft 27 kts 227°
2026-05-09 19:48 30.10859 31.40585 373 ft 4 kts 253°
2026-05-09 19:48 30.10806 31.40512 373 ft 12 kts 227°
2026-05-09 19:48 30.10727 31.40419 374 ft 15 kts 224°
2026-05-09 19:48 30.10698 31.40340 372 ft 9 kts 291°
2026-05-09 19:49 30.10755 31.40332 369 ft 11 kts 23°
2026-05-09 19:49 30.10816 31.40388 370 ft 12 kts 45°
2026-05-09 19:49 30.10874 31.40466 367 ft 13 kts 43°
2026-05-09 19:49 30.10928 31.40430 363 ft 12 kts 296°
2026-05-09 19:50 30.10961 31.40317 359 ft 18 kts 286°
2026-05-09 19:50 30.10975 31.40273 358 ft 3 kts 297°
2026-05-09 19:50 30.11000 31.40234 361 ft 9 kts 323°
2026-05-09 19:50 30.11038 31.40224 358 ft 6 kts
2026-05-09 19:51 30.11068 31.40232 352 ft 2 kts
2026-05-09 19:51 30.11073 31.40234 352 ft 0 kts 14°